This is the latest recevied weather packets stored in our database for station/object KB3YCK-2. If no packets are shown the sender has not sent any weather packets the latest 10 day(s).
| Time | Temp. | Humidity | Pressure | Rain* | Wind** | Luminosity | Snow |
|---|---|---|---|---|---|---|---|
| 1777866303 | 6.11° C | 76% | 1015 hPa | 0 mm | - | 0 W/m² | - |
| 1777864802 | 6.11° C | 77% | 1014.8 hPa | 0 mm | - | 0 W/m² | - |
| 1777864502 | 6.11° C | 76% | 1014.8 hPa | 0 mm | - | 0 W/m² | - |
| 1777864204 | 6.11° C | 76% | 1014.7 hPa | 0 mm | - | 0 W/m² | - |
| 1777861502 | 7.22° C | 74% | 1014.7 hPa | 0 mm | - | 0 W/m² | - |
| 1777860903 | 7.78° C | 73% | 1014.7 hPa | 0 mm | - | 0 W/m² | - |
| 1777859404 | 8.33° C | 71% | 1014.7 hPa | 0 mm | - | 0 W/m² | - |
| 1777858502 | 8.89° C | 70% | 1014.6 hPa | 0 mm | - | 0 W/m² | - |
| 1777857310 | 9.44° C | 69% | 1014.5 hPa | 0 mm | - | 0 W/m² | - |
| 1777854606 | 11.67° C | 63% | 1014.1 hPa | 0 mm | - | 0 W/m² | - |
| 1777854302 | 12.22° C | 63% | 1014 hPa | 0 mm | - | 0 W/m² | - |
| 1777853103 | 12.78° C | 59% | 1013.8 hPa | 0 mm | - | 0 W/m² | - |
| 1777851003 | 13.89° C | 55% | 1013.5 hPa | 0 mm | - | 14 W/m² | - |
| 1777849803 | 14.44° C | 53% | 1013.4 hPa | 0 mm | - | 25 W/m² | - |
| 1777849208 | 14.44° C | 52% | 1013.4 hPa | 0 mm | - | 28 W/m² | - |
| 1777847408 | 15° C | 51% | 1013.4 hPa | 0 mm | - | 186 W/m² | - |
| 1777845603 | 15.56° C | 52% | 1013.4 hPa | 0 mm | - | 322 W/m² | - |
| 1777844106 | 16.11° C | 51% | 1013.4 hPa | 0 mm | - | 406 W/m² | - |
| 1777843504 | 16.11° C | 52% | 1013.4 hPa | 0 mm | - | 439 W/m² | - |
| 1777842307 | 15.56° C | 50% | 1013.4 hPa | 0 mm | - | 494 W/m² | - |
| 1777839607 | 15° C | 54% | 1013.6 hPa | 0 mm | - | 673 W/m² | - |
| 1777836007 | 14.44° C | 60% | 1014.2 hPa | 0 mm | - | 863 W/m² | - |
| 1777831507 | 13.33° C | 57% | 1014.6 hPa | 0 mm | - | 1004 W/m² | - |
| 1777831210 | 13.33° C | 58% | 1014.6 hPa | 0 mm | - | 926 W/m² | - |
| 1777830305 | 12.78° C | 57% | 1014.7 hPa | 0 mm | - | 158 W/m² | - |
* Rain latest hour (hover to see other rain measurements)
** Current wind speed in m/s (hover to see current wind gust speed)